TimeEDT,TemperatureF,Dew PointF,Humidity,Sea Level PressureIn,VisibilityMPH,Wind Direction,Wind SpeedMPH,Gust SpeedMPH,PrecipitationIn,Events,Conditions,WindDirDegrees,DateUTC
12:53 AM,61.0,60.1,97,30.04,5.0,Calm,Calm,-,N/A,,Mostly Cloudy,0,2013-08-01 04:53:00
1:53 AM,61.0,60.1,97,30.02,5.0,Calm,Calm,-,0.01,,Clear,0,2013-08-01 05:53:00
2:53 AM,60.1,59.0,96,30.00,5.0,Calm,Calm,-,N/A,,Partly Cloudy,0,2013-08-01 06:53:00
3:53 AM,60.1,59.0,96,29.98,5.0,Calm,Calm,-,N/A,,Clear,0,2013-08-01 07:53:00
4:53 AM,60.1,59.0,96,29.97,4.0,Calm,Calm,-,N/A,,Partly Cloudy,0,2013-08-01 08:53:00
5:53 AM,60.1,59.0,96,29.97,5.0,Calm,Calm,-,N/A,,Scattered Clouds,0,2013-08-01 09:53:00
6:04 AM,60.8,59.0,94,29.98,4.0,Calm,Calm,-,N/A,,Mostly Cloudy,0,2013-08-01 10:04:00
6:16 AM,60.8,59.0,94,29.97,4.0,Calm,Calm,-,N/A,,Scattered Clouds,0,2013-08-01 10:16:00
6:53 AM,61.0,60.1,97,29.97,4.0,Calm,Calm,-,N/A,,Clear,0,2013-08-01 10:53:00
7:53 AM,64.0,62.1,93,29.96,5.0,Calm,Calm,-,N/A,,Overcast,0,2013-08-01 11:53:00
8:31 AM,64.4,62.6,94,29.96,4.0,Calm,Calm,-,0.01,,Overcast,0,2013-08-01 12:31:00
8:53 AM,64.9,63.0,93,29.96,3.0,Calm,Calm,-,0.02,,Overcast,0,2013-08-01 12:53:00
8:55 AM,64.4,62.6,94,29.96,1.8,Calm,Calm,-,0.02,Rain,Light Rain,0,2013-08-01 12:55:00
9:03 AM,64.4,64.4,100,29.96,1.2,Calm,Calm,-,0.03,Rain,Light Rain,0,2013-08-01 13:03:00
9:06 AM,64.4,64.4,100,29.96,2.0,Calm,Calm,-,0.03,Rain,Light Rain,0,2013-08-01 13:06:00
9:48 AM,66.2,64.4,94,29.95,1.2,Calm,Calm,-,0.07,Rain,Light Rain,0,2013-08-01 13:48:00
9:53 AM,66.0,64.9,96,29.94,1.0,Calm,Calm,-,0.08,Rain,Rain,0,2013-08-01 13:53:00
10:13 AM,66.2,66.2,100,29.94,1.5,Calm,Calm,-,0.04,Rain,Light Rain,0,2013-08-01 14:13:00
10:24 AM,66.2,66.2,100,29.95,1.2,Calm,Calm,-,0.06,Rain,Light Rain,0,2013-08-01 14:24:00
10:33 AM,66.2,66.2,100,29.94,1.0,Calm,Calm,-,0.09,Rain,Rain,0,2013-08-01 14:33:00
10:43 AM,66.2,66.2,100,29.94,1.5,Calm,Calm,-,0.11,Rain,Light Rain,0,2013-08-01 14:43:00
10:51 AM,66.2,66.2,100,29.94,2.0,Calm,Calm,-,0.11,Rain,Light Rain,0,2013-08-01 14:51:00
10:53 AM,66.9,66.0,97,29.94,2.0,Calm,Calm,-,0.12,Rain,Light Rain,0,2013-08-01 14:53:00
11:17 AM,66.2,64.4,94,29.94,3.0,Variable,3.5,-,0.01,Rain,Light Rain,0,2013-08-01 15:17:00
11:27 AM,66.2,64.4,94,29.94,2.0,SSE,9.2,-,0.04,Rain,Light Rain,160,2013-08-01 15:27:00
11:44 AM,66.2,64.4,94,29.94,1.2,Variable,6.9,-,0.10,Rain,Rain,0,2013-08-01 15:44:00
11:53 AM,66.0,64.0,93,29.94,1.8,Variable,5.8,-,0.12,Rain,Light Rain,0,2013-08-01 15:53:00
12:04 PM,64.4,64.4,100,29.94,1.2,South,5.8,-,0.03,Rain,Rain,180,2013-08-01 16:04:00
12:21 PM,64.4,62.6,94,29.94,1.5,South,4.6,-,0.09,Rain,Light Rain,170,2013-08-01 16:21:00
12:25 PM,64.4,62.6,94,29.94,2.0,Variable,5.8,-,0.09,Rain,Light Rain,0,2013-08-01 16:25:00
12:44 PM,64.4,62.6,94,29.93,3.0,Variable,3.5,-,0.10,Rain,Light Rain,0,2013-08-01 16:44:00
12:53 PM,64.9,63.0,93,29.93,3.0,Variable,3.5,-,0.11,Rain,Light Rain,0,2013-08-01 16:53:00
1:01 PM,64.4,62.6,94,29.92,6.0,South,4.6,-,0.00,,Overcast,190,2013-08-01 17:01:00
1:42 PM,66.2,62.6,88,29.92,9.0,Variable,4.6,-,0.00,,Overcast,0,2013-08-01 17:42:00
1:53 PM,66.0,62.1,87,29.91,10.0,SSW,3.5,-,0.00,,Overcast,200,2013-08-01 17:53:00
2:53 PM,66.9,63.0,87,29.90,8.0,Calm,Calm,-,N/A,,Overcast,0,2013-08-01 18:53:00
3:53 PM,66.9,64.0,90,29.89,7.0,Calm,Calm,-,0.00,,Overcast,0,2013-08-01 19:53:00
4:24 PM,66.2,64.4,94,29.88,5.0,Calm,Calm,-,0.01,Rain,Light Rain,0,2013-08-01 20:24:00
4:44 PM,68.0,64.4,88,29.87,8.0,Calm,Calm,-,0.01,,Overcast,0,2013-08-01 20:44:00
4:53 PM,68.0,64.9,90,29.87,9.0,Calm,Calm,-,0.01,,Overcast,0,2013-08-01 20:53:00
5:37 PM,68.0,64.4,88,29.87,2.5,Calm,Calm,-,0.01,Rain,Light Rain,0,2013-08-01 21:37:00
5:53 PM,68.0,66.0,93,29.86,4.0,Calm,Calm,-,0.01,Rain,Light Rain,0,2013-08-01 21:53:00
6:53 PM,69.1,66.0,90,29.86,10.0,Calm,Calm,-,0.00,,Overcast,0,2013-08-01 22:53:00
7:53 PM,66.9,66.0,97,29.87,5.0,Calm,Calm,-,N/A,,Overcast,0,2013-08-01 23:53:00
8:12 PM,68.0,66.2,94,29.87,6.0,Calm,Calm,-,N/A,,Overcast,0,2013-08-02 00:12:00
8:38 PM,66.2,66.2,100,29.86,5.0,Calm,Calm,-,N/A,,Overcast,0,2013-08-02 00:38:00
8:48 PM,66.2,66.2,100,29.85,5.0,Calm,Calm,-,N/A,,Overcast,0,2013-08-02 00:48:00
8:53 PM,66.9,66.0,97,29.86,5.0,Calm,Calm,-,N/A,,Overcast,0,2013-08-02 00:53:00
9:27 PM,66.2,66.2,100,29.87,7.0,Calm,Calm,-,N/A,,Overcast,0,2013-08-02 01:27:00
9:53 PM,66.9,66.0,97,29.87,5.0,Calm,Calm,-,N/A,,Overcast,0,2013-08-02 01:53:00
10:53 PM,66.9,66.0,97,29.85,4.0,Calm,Calm,-,N/A,,Overcast,0,2013-08-02 02:53:00
11:46 PM,66.2,66.2,100,29.87,4.0,Calm,Calm,-,N/A,,Overcast,0,2013-08-02 03:46:00
11:53 PM,66.9,66.0,97,29.86,3.0,Calm,Calm,-,N/A,,Overcast,0,2013-08-02 03:53:00